TimeCST,TemperatureF,Dew PointF,Humidity,Sea Level PressureIn,VisibilityMPH,Wind Direction,Wind SpeedMPH,Gust SpeedMPH,PrecipitationIn,Events,Conditions,WindDirDegrees,DateUTC
12:53 AM,35.1,28.9,78,30.38,10.0,Calm,Calm,-,N/A,,Clear,0,2013-01-05 06:53:00
1:53 AM,34.0,28.0,79,30.38,10.0,Calm,Calm,-,N/A,,Clear,0,2013-01-05 07:53:00
2:53 AM,35.1,26.1,70,30.38,10.0,Calm,Calm,-,N/A,,Clear,0,2013-01-05 08:53:00
3:53 AM,34.0,27.0,75,30.38,10.0,Calm,Calm,-,N/A,,Clear,0,2013-01-05 09:53:00
4:53 AM,35.1,28.0,76,30.38,10.0,Calm,Calm,-,N/A,,Clear,0,2013-01-05 10:53:00
5:53 AM,34.0,27.0,75,30.38,10.0,Calm,Calm,-,N/A,,Clear,0,2013-01-05 11:53:00
6:53 AM,34.0,30.0,85,30.40,10.0,Calm,Calm,-,N/A,,Clear,0,2013-01-05 12:53:00
7:53 AM,37.0,26.1,65,30.40,10.0,Calm,Calm,-,N/A,,Clear,0,2013-01-05 13:53:00
8:53 AM,39.0,27.0,62,30.41,10.0,Calm,Calm,-,N/A,,Overcast,0,2013-01-05 14:53:00
9:53 AM,42.1,26.1,53,30.43,10.0,Variable,4.6,-,N/A,,Overcast,0,2013-01-05 15:53:00
10:53 AM,44.1,25.0,47,30.39,10.0,Variable,4.6,-,N/A,,Overcast,0,2013-01-05 16:53:00
11:53 AM,46.0,26.1,46,30.35,10.0,Calm,Calm,-,N/A,,Overcast,0,2013-01-05 17:53:00
12:53 PM,48.0,26.1,42,30.32,10.0,Calm,Calm,-,N/A,,Overcast,0,2013-01-05 18:53:00
1:53 PM,48.0,27.0,44,30.29,10.0,SSE,4.6,-,N/A,,Overcast,150,2013-01-05 19:53:00
2:53 PM,48.0,26.1,42,30.31,10.0,Calm,Calm,-,N/A,,Overcast,0,2013-01-05 20:53:00
3:53 PM,45.0,35.1,68,30.34,4.0,Calm,Calm,-,0.01,Rain,Light Rain,0,2013-01-05 21:53:00
4:53 PM,43.0,39.0,86,30.32,8.0,Calm,Calm,-,0.05,Rain,Light Rain,0,2013-01-05 22:53:00
5:53 PM,42.1,39.0,89,30.33,9.0,Calm,Calm,-,0.03,Rain,Light Rain,0,2013-01-05 23:53:00
6:53 PM,42.1,37.9,85,30.33,10.0,Calm,Calm,-,0.00,,Overcast,0,2013-01-06 00:53:00
7:53 PM,42.1,39.0,89,30.32,8.0,Calm,Calm,-,0.01,,Overcast,0,2013-01-06 01:53:00
8:53 PM,42.1,39.0,89,30.31,8.0,Calm,Calm,-,N/A,,Mostly Cloudy,0,2013-01-06 02:53:00
9:53 PM,42.1,39.0,89,30.32,8.0,Calm,Calm,-,N/A,,Overcast,0,2013-01-06 03:53:00
10:53 PM,42.1,39.0,89,30.31,9.0,Calm,Calm,-,N/A,,Overcast,0,2013-01-06 04:53:00
11:53 PM,42.1,39.0,89,30.29,9.0,Calm,Calm,-,N/A,,Overcast,0,2013-01-06 05:53:00